#timestamp,LO_Frequency,Hit,StdDev 
1578679215.6,286046994.9,N
1578679235.4,286046995.5,N
1578679255.3,286046999.5,N
1578679275.1,286046997.7,N
1578679295.9,286046997.7,N
1578679315.7,286046997.1,N
1578679335.5,286046996.7,N
1578679355.4,286046999.2,N
1578679375.2,286046996.5,N
1578679395.0,286046998.2,N
1578679395.9,286046998.2,N
1578679415.8,286046998.2,N
1578679435.6,286046999.5,N
1578679455.5,286046996.9,N
1578679475.3,286046998.8,N
1578679495.1,286046998.3,N
1578679515.9,286046998.2,N
1578679535.7,286047000.9,N
1578679555.5,286047000.1,N
1578679575.4,286047002.3,N
1578679595.2,286047003.9,N
1578679615.1,286047001.4,N
1578679616.0,286047001.4,N
1578679635.8,286047004.4,N
1578679655.6,286047001.5,N
1578679675.5,286047003.2,N
1578679695.3,286047003.7,N
1578679715.1,286047002.5,N
1578679735.9,286047002.3,N
1578679755.7,286047000.7,N
1578679775.6,286047000.7,N
1578679795.4,286046998.1,N
1578679815.2,286047001.2,N
1578679835.1,286046998.9,N
1578679836.0,286046998.9,N
1578679855.8,286046998.5,N
1578679875.6,286046998.2,N
1578679895.5,286046999.4,N
1578679915.3,286047001.1,N
1578679935.2,286047000.3,N
1578679955.9,286047002.7,N
1578679975.7,286047003.6,N
1578679995.6,286046999.7,N
1578680015.4,286047000.1,N
1578680035.2,286047000.7,N
1578680055.1,286046998.4,N
1578680056.0,286046998.4,N
1578680075.8,286046999.2,N
1578680095.7,286046996.7,N
1578680115.5,286046998.4,N
1578680135.3,286046998.9,N
1578680155.2,286046998.7,N
1578680175.0,286046996.9,N
1578680175.9,286046996.9,N
1578680195.7,286046998.8,N
1578680215.6,286047000.9,N
1578680235.4,286046998.5,N
1578680255.3,286047000.7,N
1578680275.1,286047002.4,N
1578680295.8,286046999.7,N
1578680315.7,286046998.4,N
1578680335.5,286047001.2,N
1578680355.4,286046999.1,N
1578680375.2,286046998.7,N
1578680395.0,286046999.3,N
1578680395.9,286046999.3,N
1578680415.8,286046998.1,N
1578680435.6,286046998.9,N
1578680455.4,286047000.5,N
1578680475.3,286046998.9,N
1578680495.1,286046998.9,N
1578680515.9,286047000.4,N
1578680535.7,286047000.7,N
1578680555.5,286047000.9,N
1578680575.4,286046998.5,N
1578680595.2,286047001.1,N
1578680615.1,286046996.6,N
1578680616.0,286046996.6,N
1578680635.8,286046999.6,N
1578680655.6,286046996.6,N
1578680675.5,286046996.7,N
1578680695.3,286046998.9,N
1578680715.1,286046998.4,N
1578680735.9,286047000.0,N
1578680755.7,286047000.7,N
1578680775.6,286047002.5,N
1578680795.4,286046998.5,N
1578680815.2,286046999.5,N
1578680835.1,286046995.1,Y
1578680836.0,286046995.1,P
1578680855.8,286046995.1,N
1578680875.7,286046995.5,N
1578680895.5,286046996.7,N
1578680915.3,286046996.6,N
1578680935.2,286046996.7,N
1578680955.0,286046997.7,N
1578680955.9,286046997.7,N
1578680975.8,286046998.9,N
1578680995.6,286046997.5,N
1578681015.4,286046997.8,N
1578681035.3,286046996.3,N
1578681055.1,286046993.4,Y
1578681075.8,286046998.4,P
1578681095.7,286046998.4,N
1578681115.5,286046998.3,N
1578681135.4,286047000.3,N
1578681155.2,286047000.2,N
1578681175.0,286047000.8,N
1578681175.9,286047000.8,N
1578681195.8,286046999.1,N
1578681215.6,286046996.9,N
1578681235.4,286046997.5,N
1578681255.3,286046997.2,N
1578681275.1,286046996.5,N
1578681295.8,286046998.3,N
1578681315.7,286047000.8,N
1578681335.5,286046998.1,N
1578681355.4,286047002.7,N
1578681375.2,286047002.0,N
1578681395.0,286047001.0,N
1578681395.9,286047001.0,N
1578681415.8,286046998.4,N
1578681435.6,286047001.2,N
1578681455.5,286047000.7,N
1578681475.3,286047000.9,N
1578681495.1,286047002.7,N
1578681515.9,286046999.7,N
1578681535.7,286047000.3,N
1578681555.5,286047000.0,N
1578681575.4,286047002.4,N
1578681595.2,286047000.5,N
1578681615.1,286047000.0,N
1578681616.0,286047000.0,N
1578681635.8,286047001.9,N
1578681655.6,286047002.2,N
1578681675.5,286046999.7,N
1578681695.3,286047002.2,N
1578681715.2,286047002.3,N
1578681735.9,286047000.0,N
1578681755.7,286047000.2,N
1578681775.6,286047000.5,N
1578681795.4,286047000.1,N
1578681815.2,286047002.2,N
1578681835.1,286047001.7,N
1578681836.0,286047001.7,N
1578681855.8,286047000.2,N
1578681875.6,286046999.8,N
1578681895.5,286047000.2,N
1578681915.3,286046998.2,N
1578681935.2,286046998.9,N
1578681955.9,286046998.2,N
1578681975.7,286047001.1,N
1578681995.6,286046998.1,N
1578682015.4,286047000.2,N
1578682035.2,286047000.2,N
1578682055.1,286046998.3,N
1578682056.0,286046998.3,N
1578682075.8,286046999.8,N
1578682095.7,286047000.7,N
1578682115.5,286047000.6,N
1578682135.3,286047000.9,N
1578682155.2,286047000.1,N
1578682175.0,286047000.4,N
1578682175.9,286047000.4,N
1578682195.7,286047002.2,N
1578682215.6,286047001.7,N
1578682235.4,286047002.3,N
1578682255.3,286047002.7,N
1578682275.1,286046999.8,N
1578682276.0,286046999.8,N
1578682295.8,286047000.4,N
1578682315.7,286046999.9,N
1578682335.5,286046999.1,N
1578682355.3,286046998.2,N
1578682375.2,286047000.6,N
1578682395.0,286046998.3,N
1578682395.9,286046998.3,N
1578682415.8,286046998.5,N
1578682435.6,286047001.1,N
1578682455.4,286046998.4,N
1578682475.3,286047001.1,N
1578682495.1,286047002.8,N
1578682515.8,286047001.7,N
1578682535.7,286047002.5,N
1578682555.5,286047000.3,N
1578682575.4,286047001.8,N
1578682595.2,286047002.4,N
1578682615.0,286047002.7,N
1578682615.9,286047002.7,N
1578682635.8,286047000.6,N
1578682655.6,286047000.3,N
1578682675.4,286047000.3,N
1578682695.3,286047000.4,N
1578682715.1,286047002.3,N
1578682735.9,286046999.7,N
1578682755.7,286047000.7,N
1578682775.5,286046998.9,N
1578682795.4,286046999.3,N
